Regional Weather Roundup
Issued by NWS Northern Indiana

Home | Current Version | Previous Version | Graphics & Text | Print | Product List | Glossary On
Versions: 1 2 3 4 5 6 7 8 9 10 11 12 13 14 15 16 17 18 19 20 21 22 23 24 25 26 27 28 29 30 31 32 33 34 35 36 37 38 39 40 41 42 43 44 45 46 47 48 49 50
000
ASUS43 KIWX 261700
RWRIWX

KIWX WEATHER ROUNDUP
NATIONAL WEATHER SERVICE NORTHERN INDIANA
1200 PM EST SUN FEB 26 2017

NOTE: "FAIR" INDICATES FEW OR NO CLOUDS BELOW 12,000 FEET WITH NO
SIGNIFICANT WEATHER AND/OR OBSTRUCTIONS TO VISIBILITY.

* THESE STATIONS ARE NOT UNDER NWS QUALITY CONTROL. THEY ALSO MAY NOT
  REPORT WEATHER SUCH AS PRECIPITATION OR FOG.

INZ001>027-261800-
NORTHERN INDIANA

CITY           SKY/WX    TMP DP  RH WIND       PRES   REMARKS
GARY*          PTSUNNY   39  14  35 S17G35    30.02F
KNOX*          SUNNY     37  -8  14 S22       30.06F
SOUTH BEND     SUNNY     36  19  50 SW17G29   30.05F
GOSHEN         SUNNY     36  16  44 SW20G30   30.07F
ANGOLA*        SUNNY     34  19  55 SW14      30.07F WCI  24
FORT WAYNE     MOSUNNY   36  20  52 SW17G23   30.12F
PERU/GRISSOM   SUNNY     36  22  56 S21       30.10F

$$
INZ028>050-261800-
CENTRAL INDIANA

CITY           SKY/WX    TMP DP  RH WIND       PRES   REMARKS
LAFAYETTE      SUNNY     38  19  46 S12G21    30.12F
KOKOMO*        SUNNY     36  22  56 S16       30.13F
MUNCIE*        SUNNY     37  19  48 S16G22    30.15F
INDIANAPOLIS   MOSUNNY   39  15  37 S16       30.16F

$$
MIZ043>046-050>051-056>058-064>065-071>073-077>080-261800-
SOUTHWEST LOWER MICHIGAN

CITY           SKY/WX    TMP DP  RH WIND       PRES   REMARKS
BATTLE CREEK   MOSUNNY   33  21  61 SW20G25   30.03S WCI  21
BENTON HARBOR  CLOUDY    34  18  52 S14       30.01F WCI  25
COLDWATER*     PTSUNNY   35  19  52 SW16      30.06F WCI  26
HILLSDALE*     SUNNY     32  19  59 SW13G20   30.05S WCI  22
HOLLAND        CLOUDY    34  17  50 SW18G35   29.99S WCI  23
KALAMAZOO      CLOUDY    32  19  58 S18       30.04S WCI  20
STURGIS*       PTSUNNY   34  21  58 SW20G26   30.05F WCI  23
THREE RIVERS*  CLOUDY    34  21  58 SW16G24   30.05F WCI  24

$$
OHZ001>008-015>018-024>025-261800-
NORTHWEST OHIO

CITY           SKY/WX    TMP DP  RH WIND       PRES   REMARKS
DEFIANCE       MOSUNNY   33  19  56 SW13G22   30.13S WCI  24
FINDLAY        SUNNY     35  20  54 S17       30.14R WCI  25
TOLEDO EXPRESS SUNNY     34  18  52 SW16G22   30.11F WCI  24
TOLEDO METCALF SUNNY     35  20  54 SW16G24   30.13S WCI  25
LIMA           SUNNY     34  20  56 S12       30.14F WCI  25

$$
AND FOR LAKE MICHIGAN COASTAL AND OPEN LAKE BUOY OBSERVATIONS

STATION/POSITION TEMP    WIND        PRES    VSBY  WAVE
                 AIR SEA DIR/SP/G                  HT/PER
                 (F)     (DEG/KT/KT) (MB)    (MI)  (FT/S)
CALUMET HARBOR    36     180/ 21/ 27 1015.3F
MICHIGAN CITY     35     160/ 17/ 20   N/A
BURNS HARBOR      37     190/ 18/ 28 1016.9F
SAINT JOSEPH      33     200/ 10/ 15 1017.6

$$
&&




USA.gov is the U.S. government's official web portal to all federal, state and local government web resources and services.